Location: Courcelles
(49.2596°N, 1.7419°E)
Time: 02:28:02
(UTC+00:00)

Cosmos 304 Rocket - Pass Details

Date: 17 November 2025
Orbit: 668 x 677 km, 74.0° (Epoch: 04 December)

Event Time Altitude Azimuth Distance (km) Brightness Sun altitude
Rises 18:06:37 0° 185° (S) 3,002 7.2 -19.0°
Reaches altitude 10° 18:08:57 10° 180° (S) 2,094 6.3 -19.4°
Maximum altitude 18:13:28 48° 106° (ESE) 884 3.9 -20.1°
Enters shadow 18:13:51 47° 91° (E) 899 3.9 -20.2°
